Weather in Glebovskoye

Russia / Yaroslavl Oblast     56°39′31″N   38°42′10″E
temp.,
°C
wind,
m/s
gust,
m/s
humid.,
%
clouds,
%
prec.,
mm/h
press.,
hPa
HPBL,
m
16 june, wed
wed1600:00+16nw11905 1.2 101011
03:00+14wnw22964 1.6 101028
06:00+15nnw39937 0.0 1010307
09:00+19nnw467096 0.0 1011793
12:00+21nnw565850 0.7 10121609
15:00+22nw66445 0.7 10141803
18:00+20nw47524 0.0 1015927
21:00+14nw22730 0.0 101727
17 june, thu
thu1700:00+12nw227749 0.0 101920
03:00+10wnw22764 0.0 102123
06:00+13n27726 0.0 1022198
09:00+18nnw244310 0.0 1023787
12:00+21nw45405 0.0 10241733
15:00+22nw46474 0.0 10241794
18:00+21nw24555 0.0 1024758
21:00+16wsw22720 0.0 102512
18 june, fri
fri1800:00+14sw22740 0.0 102627
03:00+12wsw228515 0.0 102711
06:00+15wsw23795 0.0 1027104
09:00+21w246014 0.0 1027534
12:00+24w34466 0.0 10271587
15:00+25wsw44465 0.0 10261868
18:00+24sw36585 0.0 1025656
21:00+19sw347847 0.0 102560
19 june, sat
sat1900:00+16sw378251 0.0 1026126
03:00+15wsw39920 0.0 1026162
06:00+17wsw310824 0.0 1027285
09:00+22wsw46635 0.0 1026585
12:00+26wsw45535 0.0 10251323
15:00+27wsw45515 0.0 10241614
18:00+26wsw35604 0.0 1024720
21:00+20sw34756 0.0 102453
20 june, sun
sun2000:00+17sw358559 0.0 102576
03:00+15sw368319 0.0 1026103
06:00+18wsw26846 0.0 1025165
09:00+23wsw346178 0.0 1025634
12:00+26sw34475 0.0 10241427
15:00+28sw35440 0.0 10231819
18:00+26sw35550 0.0 1022641
21:00+20ssw39820 0.0 1022157